SS 1

导读 | 星芒AI

SS-1卫星,全称“Strategic Satellite 1”,是由某国研发并发射的首颗战略通信卫星,主要用于军事通信和战略指挥系统。该卫星具备高保密性和抗干扰能力,运行在地球同步轨道,确保全天候、全球范围的通信覆盖。SS-1的发射标志着该国在军事航天领域的重要进展,增强了其战略指挥与控制能力。该卫星系统由地面控制中心和多个中继节点组成,具备高度自主运行能力,是国家安全体系中的关键组成部分。

基本信息
目录编号:
10529
目录名称:
SS 1
国际标识:
1977-112D
轨道中心:
EARTH
卫星名称:
SS 1
卫星全名:
--
卫星状态:
在轨 (已飞行17492 天)
发射日期:
1977-12-08 UTC
国别 :
美国 (US)
星等 :
--
轨道信息
数据来源 国际轨道数据
星历时间: 2025-10-28T15:43:50+0800
23小时前
查看轨道信息
半长轴: 7306.977km
偏心率: 0.053983
轨道倾角: 63.335°
近地点辐角 159.205°
升交点赤经 284.440°
平近点角 203.191°
近地点: 534.389km
远地点: 1323.295km
周期: 103.602分钟
每日圈数: 13.899404
详细信息
使用方式:
暂无
2D轨道图
3D轨道图
轨道高度分析图
轨道倾角分析图
轨道综合分析图
查看轨道综合分析图